Location: Helsinki
(60.1699°N, 24.9384°E)
Time: 23:27:22
(UTC+02:00)

Vanguard 2 Rocket - Pass Details

Date: 23 September 2023
Orbit: 553 x 3312 km, 32.9° (Epoch: 28 November)

Event Time Altitude Azimuth Distance (km) Brightness Sun altitude
Rises 13:18:13 0° 210° (SSW) 7,079 12.3 29.8°
Reaches altitude 10° 13:24:46 10° 197° (SSW) 6,228 12.6 29.7°
Maximum altitude 13:37:12 21° 158° (SSE) 5,280 12.1 29.6°
Drops below altitude 10° 13:48:33 10° 119° (ESE) 5,668 11.3 29.4°
Sets 13:54:01 0° 105° (ESE) 6,298 11.2 29.2°
